Location: Cubitt Town
(51.4833°N, 0.0000°E)
Time: 00:42:02
(UTC+00:00)

SL-08 R/B - Pass Details

Date: 15 May 2026
Orbit: 666 x 729 km, 98.5° (Epoch: 9 June)

Event Time Altitude Azimuth Distance (km) Brightness Sun altitude
Rises 21:18:29 0° 11° (N) 3,139 7.3 -11.5°
Reaches altitude 10° 21:20:50 10° 6° (N) 2,206 6.6 -11.7°
Maximum altitude 21:25:27 48° 293° (WNW) 920 4.4 -12.1°
Drops below altitude 10° 21:29:59 10° 219° (SW) 2,152 5.7 -12.6°
Sets 21:32:16 0° 214° (SW) 3,055 6.4 -12.8°
